Home   Weather   Maceió   Past weeks
Flag for Brazil

Past Weather in Maceió, Alagoas, Brazil — Yesterday and Last 2 Weeks

Now
84 °F

Partly sunny.


Feels Like: 88 °F
Forecast: 85 / 76 °F
Wind: 1 mph from Northeast

Location: Maceio Aeroporto

Current Time: May 27, 2019 at 11:01:58 am

Latest Report: May 27, 2019 at 10:00 am


Visibility: N/A

Pressure: 30.01 "Hg

Humidity: 62%

Dew Point: 70 °F

Location of MaceióLocation

Past Weather in Maceió — Graph

°F

Maceió Temperature Yesterday

Maximum temperature yesterday: 86 °F (at 12:00 pm)
Minimum temperature yesterday: 70 °F (at 1:00 am)
Average temperature yesterday: 77 °F

High & Low Weather Summary for the Past Weeks

 TemperatureHumidityPressure
High88 °F (May 15, 12:00 pm)94% (May 12, 8:00 pm)30.01 "Hg (May 12, 8:00 pm)
Low70 °F (May 18, 2:00 am)49% (May 15, 12:00 pm)29.86 "Hg (May 14, 3:00 pm)
Average78 °F81%29.93 "Hg
* Reported May 12 10:00 am — May 27 10:00 am, Maceió. Weather by CustomWeather, © 2019

Note: Actual official high and low records may vary slightly from our data, if they occured in-between our weather recording intervals... More about our weather records

Advertising

Maceió Weather History for the Previous 24 Hours

Scroll right to see more
 ConditionsComfort  
Time TempWeatherWind HumidityBarometerVisibility
10:00 am
Mon, May 27
84 °FPartly sunny.1 mph62%30.01 "HgN/A
9:00 am82 °FScattered clouds.2 mph70%30.01 "HgN/A
8:00 am77 °FPartly sunny.3 mph83%30.01 "HgN/A
7:00 am75 °FBroken clouds.1 mph89%29.98 "HgN/A
6:00 am73 °FBroken clouds.2 mph94%29.98 "HgN/A
5:00 am73 °FLight rain. Partly cloudy.2 mph89%29.98 "Hg3 mi
4:15 am72 °FRain. Passing clouds.5 mph94%N/A2 mi
4:00 am75 °FPassing clouds.No wind89%29.95 "HgN/A
3:00 am75 °FPassing clouds.No wind89%29.95 "HgN/A
2:00 am73 °FPassing clouds.2 mph94%29.92 "HgN/A
1:00 am75 °FPartly cloudy.3 mph89%29.95 "HgN/A
12:00 am73 °FPassing clouds.No wind94%29.98 "HgN/A
11:00 pm
Sun, May 26
73 °FPassing clouds.No wind89%29.98 "HgN/A
10:00 pm73 °FPassing clouds.No wind89%29.98 "HgN/A
9:00 pm77 °FPassing clouds.No wind83%29.95 "HgN/A
8:00 pm77 °FPassing clouds.3 mph83%29.95 "HgN/A
7:00 pm75 °FPassing clouds.5 mph89%29.95 "HgN/A
6:00 pm77 °FClear.6 mph83%29.92 "Hg10 mi
5:00 pm81 °FPassing clouds.5 mph74%29.92 "HgN/A
4:00 pm84 °FPassing clouds.6 mph62%29.89 "HgN/A
3:00 pm84 °FScattered clouds.6 mph62%29.89 "HgN/A
2:00 pm84 °FPartly sunny.6 mph58%29.89 "HgN/A
1:00 pm84 °FPartly sunny.12 mph62%29.92 "HgN/A
12:00 pm86 °FPartly sunny.9 mph59%29.95 "HgN/A
11:00 am84 °FBroken clouds.8 mph70%29.98 "HgN/A
Weather by CustomWeather, © 2019

See weather overview